Regional Weather Roundup
Issued by NWS

Home | Current Version | Previous Version | Graphics & Text | Print | Product List | Glossary On
Versions: 1 2 3 4 5 6 7 8 9 10 11 12 13 14 15 16 17 18 19 20 21 22 23 24 25 26 27 28 29 30 31 32 33 34 35 36 37 38 39 40 41 42 43 44 45 46 47 48 49 50
000
ASUS43 KTOP 262259
RWRKS

WEATHER ROUNDUP FOR KANSAS
NATIONAL WEATHER SERVICE GOODLAND KS
600 PM CDT FRI AUG 26 2016

NOTE:  "FAIR" INDICATES FEW OR NO CLOUDS BELOW 12,000 FEET WITH NO
SIGNIFICANT WEATHER AND/OR OBSTRUCTIONS TO VISIBILITY.

KSZ001>006-013>018-027>032-041>047-270000-
NORTHWEST KANSAS

CITY           SKY/WX    TMP DP  RH WIND       PRES   REMARKS
GOODLAND       PTSUNNY   69  61  75 SE8       30.02F
HAYS           PTSUNNY   75  59  57 SW3       30.01F
HILL CITY      MOSUNNY   74  63  68 E8        30.03F
RUSSELL        MOSUNNY   74  65  73 W5        30.00F
$$

KSZ061>065-074>080-084>089-270000-
SOUTHWEST KANSAS

CITY           SKY/WX    TMP DP  RH WIND       PRES   REMARKS
DODGE CITY     MOSUNNY   79  61  53 S9        30.02F
ELKHART          N/A     78  59  52 SE7         N/A
GARDEN CITY    MOSUNNY   80  61  52 S10       30.01F
GREAT BEND     MOSUNNY   79  63  57 S14       30.00F
LIBERAL        SUNNY     82  61  47 S8        30.02F
$$

KSZ066>073-081>083-090>101-270000-
SOUTHEAST KANSAS

CITY           SKY/WX    TMP DP  RH WIND       PRES   REMARKS
CHANUTE        CLOUDY    74  68  81 SE8       29.99F
COFFEYVILLE    CLOUDY    83  71  67 S10       29.97F
HUTCHINSON     SUNNY     80  66  62 S6        29.99F
MEDICINE LODGE   N/A     81  64  56 S5        29.98F
NEWTON         CLOUDY    81  69  67 SW8       30.00F
PARSONS        CLOUDY    74  67  78 N8        30.00F THUNDER
WICHITA INTL   MOSUNNY   83  66  56 S6        29.97F
WICHITA JABRA  CLOUDY    82  67  60 SE6       29.98F
WINFIELD       MOSUNNY   85  68  56 S5        29.98F
$$

KSZ007>012-019>026-033>040-048>060-102>105-270000-
NORTHEAST KANSAS

CITY           SKY/WX    TMP DP  RH WIND       PRES   REMARKS
CONCORDIA      MOSUNNY   75  64  68 SW6       30.01F
EMPORIA        MOSUNNY   83  67  58 SW7       29.97F
LAWRENCE       PTSUNNY   83  71  67 S10       29.95F
MANHATTAN      CLOUDY    80  69  69 W5        29.98F
OLATHE IND     PTSUNNY   83  71  67 SE12      29.97F
OLATHE EXE     PTSUNNY   80  71  74 S10       29.97F
SALINA         CLOUDY    80  66  62 CALM      30.00F
TOPEKA BILLARD PTSUNNY   76  72  87 CALM      29.98F
TOPEKA FORBES  LGT RAIN  78  73  84 NW8       29.98F
$$




USA.gov is the U.S. government's official web portal to all federal, state and local government web resources and services.